Location: Leimbach
(47.5611°N, 9.1881°E)
Time: 07:34:02
(UTC+00:00)

STARLINK-1353 - Pass Details

Date: 07 June 2020
Orbit: 531 x 535 km, 53.0° (Epoch: 07 July)

Event Time Altitude Azimuth Distance (km) Brightness Sun altitude
Rises 02:16:04 0° 297° (WNW) 2,680 7.0 -9.5°
Reaches altitude 10° 02:18:17 10° 299° (WNW) 1,788 6.1 -9.3°
Maximum altitude 02:22:20 71° 24° (NNE) 568 3.9 -8.8°
Drops below altitude 10° 02:26:23 10° 109° (ESE) 1,782 6.5 -8.4°
Sets 02:28:36 0° 112° (ESE) 2,670 7.4 -8.1°
